Location: Piotrkow Trybunalski
(51.4000°N, 19.6830°E)
Time: 01:45:08
(UTC+01:00)

A-11 Canister half - Pass Details

Date: 14 December 2023
Orbit: 1512 x 1687 km, 47.2° (Epoch: 23 February)

Event Time Altitude Azimuth Distance (km) Brightness Sun altitude
Exits shadow 01:55:39 18° 120° (ESE) 3,279 10.8 -51.0°
Drops below altitude 10° 01:57:46 10° 117° (ESE) 3,917 11.3 -50.7°
Sets 02:00:59 0° 115° (ESE) 4,918 11.9 -50.3°
